[[{"header":{"parameterUnit":"m.s-1","parameterCategory":2,"la1":30.2991,"la2":30.254,"lo1":-89.0895,"lo2":-89.0444,"dy":0.0017,"dx":0.0017,"nx":28,"ny":28,"refTime":"2026-02-09T09:00:00:Z","depth":"0","parameterNumber":2,"parameterNumberName":"U-component_of_CURRENTS"},"data":[0,0,0,0,0,0,0,0,0,0,0,0,0,0,0,0,0,0,0,0,0,0,0,0,0,0,0,0,0,0,0,0,0,0,0,0,0,0,0,0,0,0,0,0,0,0,0,0,0,0,0,0,0,0,0,0,0,0,0.2717,0.2719,0,0.2813,0.2814,0.2815,0.2808,0.2807,0.2806,0.2805,0.2851,0.2853,0.2855,0,0,0,0,0,0,0,0,0,0,0,0,0,0.2717,0.2716,0.2717,0.2719,0.272,0.2813,0.2814,0.2815,0.2809,0.2807,0.2806,0.2804,0.285,0.2853,0.2855,0,0,0,0,0,0,0,0,0,0,0,0,0,0.2752,0.2715,0.2717,0.273,0.2733,0.2813,0.2814,0.2815,0.2809,0.2807,0.2805,0.2804,0.2849,0.2852,0.2856,0.2911,0,0,0.2866,0.2868,0,0,0,0,0,0,0,0,0.275,0.2752,0.2727,0.273,0.2732,0.2799,0.2831,0.2846,0.2809,0.2777,0.2805,0.2803,0.2832,0.2837,0.2855,0.2913,0.2915,0.2866,0.2869,0.287,0.2871,0,0,0,0,0,0,0,0.2747,0.2749,0.2752,0.2729,0.2732,0.2796,0.2797,0.2835,0.281,0.278,0.278,0.2796,0.2832,0.2852,0.2856,0.2916,0.2866,0.2869,0.2872,0.2873,0.3084,0.3088,0,0,0,0,0,0,0.2733,0.2745,0.2749,0.2755,0.274,0.2797,0.2798,0.2777,0.2811,0.2815,0.2797,0.2795,0.2847,0.2852,0.2858,0.3,0.287,0.2873,0.2875,0.3081,0.3085,0.3089,0,0,0,0,0,0,0.2732,0.2731,0.2745,0.2758,0.2764,0.2798,0.2775,0.278,0.2808,0.2825,0.2828,0.2821,0.2846,0.2853,0.2924,0.2999,0.2875,0.2878,0.3077,0.3082,0.3087,0.3237,0,0,0,0,0,0,0.2731,0.2729,0.2732,0.2755,0.2763,0.2825,0.2778,0.2783,0.2821,0.282,0.2847,0.2848,0.2845,0.292,0.2928,0.3001,0.2881,0.3072,0.3079,0.3085,0.3228,0.3247,0.3264,0,0,0,0,0,0.273,0.2785,0.273,0.2733,0.2755,0.2828,0.284,0.2857,0.2824,0.2868,0.2881,0.2848,0.2967,0.2926,0.2934,0.301,0.3069,0.3077,0.3085,0.322,0.3243,0.3263,0,0,0,0,0,0,0.2844,0.2789,0.2731,0.2774,0.2793,0.2828,0.2895,0.287,0.2915,0.2917,0.2898,0.2905,0.2995,0.2984,0.2938,0.3091,0.3012,0.3022,0.3111,0.3133,0.3151,0.3201,0.2883,0,0,0,0,0,0.2847,0.2835,0.2814,0.2855,0.2866,0.2865,0.29,0.2898,0.2933,0.2949,0.2958,0.2984,0.3037,0.3067,0.3105,0.3193,0.3213,0.3246,0.3264,0.3279,0.3327,0.3413,0.3444,0.3115,0.3115,0.3115,0,0,0.2915,0.2877,0.2881,0.2872,0.289,0.2969,0.2884,0.2957,0.3035,0.2951,0.3067,0.3049,0.3073,0.3175,0.3214,0.3175,0.3385,0.3289,0.3302,0.3343,0.3425,0.3457,0.3485,0.3121,0.312,0.3119,0,0,0.3057,0.2996,0.3031,0.3056,0.3069,0.3075,0.3092,0.3114,0.3135,0.3214,0.3185,0.3219,0.3282,0.3327,0.3354,0.3498,0.3474,0.3492,0.3633,0.3715,0.3743,0.3768,0.384,0.387,0.3504,0.3505,0.3505,0,0.3137,0.315,0.3077,0.3142,0.3188,0.3127,0.3223,0.3268,0.3311,0.3347,0.3277,0.3378,0.3372,0.3522,0.3562,0.3544,0.3576,0.3544,0.374,0.3765,0.3788,0.3856,0.3887,0.3513,0.3512,0.3511,0.351,0,0.329,0.3326,0.3382,0.3397,0.3449,0.3533,0.3553,0.3607,0.3582,0.3597,0.369,0.3665,0.3719,0.3716,0.3684,0.385,0.3816,0.3748,0.3685,0.3831,0.3892,0.3922,0.3525,0.3522,0.3519,0.3517,0,0,0.3424,0.3459,0.3484,0.3515,0.3576,0.3632,0.378,0.3867,0.3937,0.3957,0.4049,0.411,0.4035,0.4063,0.4008,0.4068,0.423,0.3984,0.3984,0.4057,0.4422,0.4281,0.4299,0.419,0.4196,0.4201,0.4401,0,0.3562,0.3671,0.3676,0.385,0.3919,0.393,0.4052,0.4131,0.4148,0.4226,0.4223,0.4272,0.4191,0.4168,0.4243,0.4215,0.4317,0.4183,0.4271,0.4275,0.4132,0.4332,0.4048,0.4193,0.443,0.4435,0.4438,0,0.3733,0.3754,0.389,0.3996,0.4029,0.4133,0.4255,0.4351,0.4464,0.4465,0.4533,0.4496,0.4607,0.4464,0.4609,0.4523,0.4523,0.4498,0.4504,0.4348,0.419,0.4086,0.4238,0.4117,0.4484,0.448,0.4477,0,0.3807,0.3949,0.4021,0.4067,0.4165,0.4248,0.4313,0.4426,0.4488,0.4604,0.4629,0.4747,0.4757,0.4821,0.4771,0.4708,0.4891,0.4789,0.4696,0.4685,0.4453,0.441,0.4499,0.4949,0.4949,0.4948,0.4948,0,0.3944,0.4054,0.4056,0.4095,0.422,0.4284,0.4414,0.4494,0.4591,0.468,0.473,0.4799,0.4841,0.4916,0.4891,0.4896,0.5011,0.4793,0.4755,0.4494,0.4455,0.4339,0.4284,0.4956,0.4954,0.4953,0.4952,0,0.4078,0.407,0.4161,0.421,0.4249,0.4332,0.4452,0.4546,0.4614,0.4732,0.4768,0.4887,0.4973,0.5005,0.5083,0.5018,0.4882,0.5007,0.4691,0.4611,0.4362,0.4324,0.4291,0.4177,0.4967,0.4965,0.4963,0,0.4163,0.4199,0.4202,0.4246,0.4284,0.4393,0.448,0.4556,0.4634,0.4774,0.4839,0.4953,0.5015,0.5089,0.4978,0.4967,0.4837,0.4707,0.4539,0.4382,0.4315,0.4181,0.4079,0.4304,0.4297,0.4291,0.4287,0,0.4311,0.4273,0.4294,0.4336,0.4412,0.4484,0.4594,0.4632,0.4722,0.479,0.4887,0.4938,0.496,0.4785,0.4735,0.4688,0.4446,0.4589,0.4519,0.3915,0.3688,0.3542,0.4145,0.4237,0.4242,0.4245,0.4248,0.425,0.4407,0.4438,0.4407,0.4469,0.4528,0.4557,0.4555,0.4632,0.4677,0.4651,0.4814,0.4723,0.4568,0.4426,0.4383,0.4057,0.4125,0.3864,0.3874,0.3788,0.3548,0.4048,0.4019,0.4022,0.4025,0.4028,0.4031,0,0.4502,0.452,0.4575,0.4569,0.459,0.46,0.4621,0.4519,0.4473,0.4464,0.4449,0.4169,0.396,0.3816,0.3508,0.3348,0.322,0.3253,0.301,0.2979,0.35,0.3335,0.3041,0.3041,0.3041,0.3041,0.3041,0.3041,0.4553,0.459,0.4584,0.4601,0.4598,0.4505,0.4445,0.4263,0.4152,0.3833,0.3589,0.3502,0.3389,0.3186,0.2929,0.2854,0.2687,0.2503,0.2625,0.2976,0.3033,0.3088,0.2923,0.2547,0.2546,0.1912,0.1907,0.1903]},{"header":{"parameterUnit":"m.s-1","parameterCategory":2,"la1":30.2991,"la2":30.254,"lo1":-89.0895,"lo2":-89.0444,"dy":0.0017,"dx":0.0017,"nx":28,"ny":28,"refTime":"2026-02-09T09:00:00:Z","depth":"0","parameterNumber":3,"parameterNumberName":"V-component_of_CURRENTS"},"data":[0,0,0,0,0,0,0,0,0,0,0,0,0,0,0,0,0,0,0,0,0,0,0,0,0,0,0,0,0,0,0,0,0,0,0,0,0,0,0,0,0,0,0,0,0,0,0,0,0,0,0,0,0,0,0,0,0,0,0.0278,0.0278,0,0.024,0.024,0.0239,0.019,0.019,0.0189,0.0188,0.0091,0.0089,0.0087,0,0,0,0,0,0,0,0,0,0,0,0,0,0.0261,0.0262,0.0278,0.0278,0.0278,0.0241,0.024,0.0239,0.019,0.019,0.0189,0.0188,0.0092,0.0089,0.0087,0,0,0,0,0,0,0,0,0,0,0,0,0,0.0249,0.0262,0.0278,0.025,0.0248,0.0241,0.024,0.0239,0.019,0.019,0.0189,0.0188,0.0092,0.009,0.0087,0.0086,0,0,0.0077,0.0076,0,0,0,0,0,0,0,0,0.025,0.0249,0.0255,0.0252,0.0249,0.0221,0.0198,0.0186,0.0191,0.021,0.0188,0.0187,0.0131,0.0125,0.0118,0.0082,0.0077,0.0077,0.0075,0.0074,0.0073,0,0,0,0,0,0,0,0.0251,0.025,0.0261,0.0255,0.0251,0.0224,0.0221,0.0196,0.0173,0.0208,0.0205,0.0204,0.0129,0.0121,0.0115,0.0076,0.0077,0.0074,0.0073,0.0071,0.0037,0.0038,0,0,0,0,0,0,0.0263,0.0252,0.0262,0.026,0.0249,0.0225,0.0222,0.0229,0.0175,0.0167,0.0205,0.0202,0.0126,0.0118,0.0111,0.0114,0.0074,0.0071,0.0069,0.0036,0.0037,0.0038,0,0,0,0,0,0,0.0263,0.0265,0.0264,0.0256,0.0254,0.0227,0.0235,0.0229,0.0221,0.0174,0.0164,0.0203,0.0125,0.0115,0.0097,0.011,0.007,0.0067,0.0035,0.0036,0.0037,0.0116,0,0,0,0,0,0,0.0263,0.0265,0.0271,0.0257,0.0255,0.0273,0.0236,0.0229,0.0223,0.0218,0.0169,0.0159,0.0124,0.0102,0.0094,0.0105,0.0065,0.0034,0.0035,0.0037,0.0112,0.012,0.0126,0,0,0,0,0,0.0263,0.0284,0.0272,0.0272,0.0265,0.0275,0.0272,0.0247,0.0224,0.0233,0.0196,0.016,0.0107,0.01,0.0091,0.0101,0.0033,0.0035,0.0037,0.0109,0.0118,0.0126,0,0,0,0,0,0,0.0275,0.028,0.0267,0.0286,0.0284,0.0267,0.0272,0.0253,0.0232,0.0222,0.0172,0.016,0.0149,0.0117,0.0112,0.0097,0.0064,0.0064,0.0122,0.013,0.0137,0.0136,0.0062,0,0,0,0,0,0.0282,0.0301,0.0296,0.031,0.0313,0.0292,0.0289,0.0275,0.0256,0.0245,0.0213,0.0177,0.0152,0.0135,0.011,0.0102,0.009,0.0102,0.011,0.0116,0.0109,0.0103,0.0109,0.0045,0.0045,0.0045,0,0,0.0288,0.0295,0.0302,0.0314,0.0308,0.0319,0.0288,0.0294,0.0295,0.0238,0.023,0.0202,0.0156,0.0149,0.014,0.0122,0.0137,0.0118,0.0124,0.0113,0.0106,0.0112,0.0118,0.0046,0.0046,0.0046,0,0,0.0319,0.0319,0.0346,0.0352,0.0355,0.0343,0.0349,0.0338,0.0326,0.0322,0.0278,0.0259,0.0225,0.0195,0.0173,0.0204,0.0177,0.0199,0.0228,0.0224,0.0229,0.0233,0.0268,0.0275,0.0199,0.0199,0.02,0,0.0321,0.0349,0.0353,0.038,0.0379,0.0358,0.0373,0.0367,0.035,0.0338,0.033,0.0279,0.0245,0.0221,0.0233,0.0218,0.0225,0.0201,0.0234,0.0237,0.024,0.0274,0.028,0.0203,0.0203,0.0203,0.0202,0,0.0367,0.0387,0.0405,0.0425,0.0432,0.0442,0.0435,0.0436,0.0417,0.0399,0.0382,0.0347,0.031,0.0306,0.0276,0.0278,0.0282,0.0248,0.0214,0.0251,0.0285,0.0291,0.0209,0.0208,0.0207,0.0206,0,0,0.0358,0.0423,0.0424,0.0435,0.0449,0.0455,0.0468,0.046,0.0457,0.0446,0.0441,0.0405,0.0381,0.0355,0.0322,0.0319,0.0361,0.0297,0.0295,0.0336,0.0387,0.038,0.0385,0.0334,0.0334,0.0335,0.0418,0,0.0376,0.0434,0.0458,0.0485,0.0501,0.0497,0.0508,0.0501,0.0491,0.0489,0.0452,0.0438,0.0401,0.0391,0.0381,0.0367,0.0371,0.0344,0.034,0.034,0.0331,0.0388,0.0369,0.0439,0.0423,0.0424,0.0424,0,0.0385,0.0425,0.0469,0.0503,0.0508,0.0523,0.0521,0.0533,0.0528,0.0523,0.0505,0.0483,0.0478,0.0439,0.0439,0.0427,0.0408,0.0399,0.0401,0.0361,0.034,0.0389,0.0449,0.0301,0.0432,0.0431,0.0431,0,0.0351,0.0412,0.0444,0.0457,0.0506,0.0515,0.0527,0.0532,0.0546,0.0546,0.0568,0.0539,0.0554,0.052,0.0513,0.0476,0.0529,0.047,0.0448,0.045,0.0413,0.0409,0.0324,0.0455,0.0455,0.0455,0.0454,0,0.0338,0.0355,0.0432,0.0452,0.0476,0.0506,0.0527,0.0538,0.0566,0.0613,0.0582,0.0639,0.0575,0.0599,0.0554,0.0549,0.0564,0.0469,0.0466,0.0445,0.0443,0.0293,0.0197,0.0458,0.0457,0.0456,0.0456,0,0.0287,0.034,0.0383,0.0452,0.0467,0.0482,0.0541,0.0566,0.0597,0.0668,0.068,0.0726,0.0788,0.0739,0.0722,0.0625,0.052,0.0583,0.0588,0.0581,0.0377,0.0286,0.0208,0.0143,0.0559,0.0559,0.0559,0,0.0267,0.0291,0.0382,0.0414,0.0447,0.0483,0.0519,0.0564,0.0619,0.0752,0.0806,0.0883,0.1003,0.0983,0.0828,0.0758,0.0593,0.0617,0.051,0.0376,0.0272,0.0212,0.0159,0.0521,0.0521,0.0521,0.0521,0,0.0233,0.0273,0.0324,0.0407,0.0455,0.0515,0.0585,0.0641,0.0741,0.0863,0.1069,0.1191,0.1178,0.1129,0.0964,0.086,0.0485,0.061,0.0458,0.0224,0.0166,0.01,0.0484,0.052,0.052,0.052,0.052,0.052,0.0209,0.0241,0.0333,0.0407,0.047,0.0574,0.0653,0.0792,0.0957,0.1227,0.13,0.1586,0.1373,0.1182,0.0971,0.0509,0.052,0.0353,0.0261,0.0221,0.0117,0.0517,0.0541,0.0542,0.0542,0.0542,0.0542,0,0.0203,0.0262,0.033,0.0447,0.0536,0.0573,0.0725,0.0874,0.1148,0.1456,0.1714,0.1822,0.1534,0.1166,0.0541,0.0218,0.0078,0.0035,-0.0079,-0.0114,0.0237,0.0189,0.0153,0.0153,0.0153,0.0153,0.0153,0.0153,0.0205,0.0285,0.0344,0.0501,0.0582,0.0733,0.0845,0.1115,0.1382,0.1827,0.2084,0.2258,0.1927,0.0794,0.004,-0.0135,-0.0373,-0.0414,-0.0508,-0.0313,-0.0291,-0.0271,-0.0339,-0.0485,-0.0486,-0.0825,-0.0829,-0.0832]}],[{"header":{"parameterUnit":"m.s-1","parameterCategory":2,"la1":30.2991,"la2":30.254,"lo1":-89.0895,"lo2":-89.0444,"dy":0.0017,"dx":0.0017,"nx":28,"ny":28,"refTime":"2026-02-09T09:00:00:Z","depth":"2","parameterNumber":2,"parameterNumberName":"U-component_of_CURRENTS"},"data":[0,0,0,0,0,0,0,0,0,0,0,0,0,0,0,0,0,0,0,0,0,0,0,0,0,0,0,0,0,0,0,0,0,0,0,0,0,0,0,0,0,0,0,0,0,0,0,0,0,0,0,0,0,0,0,0,0,0,0.2037,0.2037,0,0.2053,0.2053,0.2053,0.2049,0.2048,0.2048,0.2048,0.2083,0.2084,0.2085,0,0,0,0,0,0,0,0,0,0,0,0,0,0.2013,0.2013,0.2037,0.2037,0.2038,0.2053,0.2053,0.2053,0.2049,0.2048,0.2048,0.2048,0.2083,0.2084,0.2085,0,0,0,0,0,0,0,0,0,0,0,0,0,0.2025,0.2013,0.2037,0.2038,0.2038,0.2053,0.2053,0.2054,0.2049,0.2048,0.2048,0.2048,0.2082,0.2084,0.2086,0.2103,0,0,0.2091,0.2091,0,0,0,0,0,0,0,0,0.2024,0.2025,0.2038,0.2038,0.2038,0.205,0.2058,0.2071,0.2049,0.2043,0.2048,0.2048,0.2075,0.2077,0.2079,0.2105,0.2106,0.2091,0.2092,0.2093,0.2093,0,0,0,0,0,0,0,0.2023,0.2025,0.2042,0.2038,0.2039,0.2042,0.2043,0.206,0.206,0.2044,0.2044,0.2048,0.2075,0.2077,0.208,0.2107,0.2091,0.2092,0.2093,0.2094,0.221,0.2212,0,0,0,0,0,0,0.2024,0.2024,0.2042,0.2043,0.2032,0.2042,0.2043,0.2045,0.206,0.2062,0.2048,0.2048,0.2074,0.2078,0.2081,0.2159,0.2093,0.2094,0.2095,0.2208,0.2211,0.2213,0,0,0,0,0,0,0.2023,0.2025,0.2041,0.2035,0.2037,0.2043,0.2045,0.2046,0.206,0.2063,0.2065,0.2063,0.2074,0.2078,0.2125,0.2158,0.2095,0.2097,0.2206,0.2209,0.2212,0.2279,0,0,0,0,0,0,0.2022,0.2024,0.2033,0.2035,0.2038,0.2065,0.2046,0.2047,0.2063,0.2063,0.2077,0.2079,0.2074,0.2123,0.2127,0.2159,0.2098,0.2203,0.2207,0.2211,0.2274,0.2284,0.2293,0,0,0,0,0,0.2021,0.2034,0.2034,0.2036,0.2047,0.2067,0.2069,0.2071,0.2064,0.208,0.2099,0.2079,0.215,0.2126,0.2131,0.2164,0.2202,0.2206,0.2211,0.227,0.2282,0.2292,0,0,0,0,0,0,0.2026,0.2035,0.2034,0.2049,0.2064,0.2067,0.2083,0.2082,0.2107,0.2115,0.2108,0.2113,0.2165,0.216,0.2134,0.2211,0.2172,0.2177,0.2215,0.2227,0.2236,0.2248,0.2099,0,0,0,0,0,0.2032,0.2051,0.2054,0.2073,0.2079,0.2084,0.2094,0.2101,0.2118,0.2128,0.2134,0.2153,0.2186,0.2203,0.2224,0.2267,0.2287,0.2292,0.2301,0.2309,0.2324,0.2379,0.2395,0.2228,0.2228,0.2228,0,0,0.2042,0.205,0.2061,0.2077,0.2087,0.2103,0.209,0.2119,0.2147,0.2131,0.2173,0.2187,0.2206,0.2257,0.2279,0.2258,0.2372,0.2315,0.2321,0.2332,0.2386,0.2402,0.2416,0.2232,0.2231,0.223,0,0,0.2072,0.2076,0.21,0.211,0.2135,0.2137,0.2149,0.2162,0.2186,0.2239,0.2231,0.2273,0.2312,0.233,0.2347,0.2423,0.2419,0.2423,0.2479,0.2533,0.2547,0.256,0.2626,0.2644,0.2426,0.2426,0.2426,0,0.209,0.2093,0.2113,0.2132,0.2141,0.2152,0.2173,0.2204,0.2235,0.2262,0.2268,0.2344,0.2354,0.2418,0.2446,0.2444,0.2476,0.2433,0.2545,0.2558,0.2569,0.2634,0.2653,0.243,0.243,0.2429,0.2429,0,0.2122,0.2124,0.2138,0.216,0.2192,0.2204,0.2246,0.2282,0.2313,0.2335,0.2419,0.2453,0.2497,0.2507,0.2506,0.2586,0.2585,0.255,0.2514,0.259,0.2654,0.2673,0.2435,0.2434,0.2433,0.2432,0,0,0.2152,0.2154,0.2161,0.217,0.2196,0.2233,0.2291,0.2338,0.2389,0.2444,0.2513,0.2582,0.2599,0.262,0.2624,0.2671,0.2786,0.2651,0.2652,0.2715,0.2925,0.2814,0.2823,0.2767,0.2771,0.2773,0.2945,0,0.2158,0.2179,0.219,0.2226,0.2233,0.2269,0.2322,0.239,0.2451,0.2521,0.2584,0.2645,0.2644,0.2676,0.2734,0.2768,0.2835,0.2744,0.2846,0.285,0.2738,0.284,0.2595,0.2717,0.2962,0.2965,0.2967,0,0.2177,0.2179,0.2203,0.2243,0.2258,0.2297,0.2395,0.2446,0.2542,0.2602,0.2684,0.2716,0.2813,0.2791,0.2935,0.2879,0.2921,0.2947,0.2953,0.2836,0.2772,0.2678,0.2741,0.2998,0.2995,0.2993,0.2991,0,0.2187,0.22,0.2215,0.2222,0.227,0.2321,0.2364,0.2466,0.2526,0.2646,0.2708,0.2817,0.2895,0.2965,0.3027,0.2995,0.3171,0.3126,0.3076,0.307,0.2875,0.2844,0.3235,0.3235,0.3235,0.3234,0.3234,0,0.2168,0.219,0.222,0.2229,0.227,0.2336,0.2408,0.2481,0.2588,0.2667,0.2746,0.2836,0.2943,0.3036,0.3077,0.3144,0.3223,0.3119,0.3112,0.2892,0.2862,0.31,0.3083,0.3241,0.3239,0.3238,0.3237,0,0.2166,0.2175,0.2194,0.2244,0.2268,0.231,0.24,0.2453,0.2575,0.269,0.2728,0.2886,0.302,0.3103,0.3232,0.3208,0.3264,0.3259,0.2999,0.2956,0.3126,0.311,0.325,0.3248,0.3246,0.3244,0.3243,0,0.2149,0.2158,0.22,0.2212,0.2229,0.2284,0.2315,0.2428,0.2492,0.2712,0.2765,0.2933,0.3018,0.3164,0.3159,0.3217,0.3276,0.2994,0.2874,0.3151,0.3131,0.3118,0.3105,0.2668,0.2662,0.2658,0.2654,0,0.2102,0.2132,0.2134,0.2165,0.2196,0.2236,0.2308,0.2339,0.2494,0.2591,0.2744,0.2824,0.2979,0.2911,0.2966,0.2956,0.2957,0.2894,0.3279,0.2675,0.2608,0.2585,0.2591,0.261,0.2614,0.2617,0.262,0.2621,0.2058,0.2051,0.2073,0.2105,0.2136,0.2193,0.2211,0.2271,0.2342,0.2457,0.2606,0.265,0.2711,0.2665,0.2599,0.2551,0.276,0.2626,0.2639,0.2658,0.2533,0.2462,0.2417,0.242,0.2422,0.2425,0.2427,0,0.1984,0.2017,0.2024,0.2042,0.2033,0.2129,0.2207,0.2176,0.2192,0.2283,0.236,0.2204,0.2173,0.2245,0.2105,0.2092,0.2055,0.2004,0.194,0.1987,0.2027,0.1866,0.1576,0.1573,0.157,0.1567,0,0,0.1948,0.196,0.1973,0.1939,0.1962,0.1949,0.1991,0.1971,0.2,0.1927,0.1924,0.209,0.2186,0.1858,0.1814,0.1672,0.181,0.1602,0.2293,0.2266,0.2303,0.2404,0.2211,0,0,0,0,0]},{"header":{"parameterUnit":"m.s-1","parameterCategory":2,"la1":30.2991,"la2":30.254,"lo1":-89.0895,"lo2":-89.0444,"dy":0.0017,"dx":0.0017,"nx":28,"ny":28,"refTime":"2026-02-09T09:00:00:Z","depth":"2","parameterNumber":3,"parameterNumberName":"V-component_of_CURRENTS"},"data":[0,0,0,0,0,0,0,0,0,0,0,0,0,0,0,0,0,0,0,0,0,0,0,0,0,0,0,0,0,0,0,0,0,0,0,0,0,0,0,0,0,0,0,0,0,0,0,0,0,0,0,0,0,0,0,0,0,0,0.0221,0.0221,0,0.0191,0.0191,0.0191,0.016,0.016,0.0159,0.0159,0.0085,0.0083,0.0082,0,0,0,0,0,0,0,0,0,0,0,0,0,0.0209,0.021,0.0221,0.0221,0.0221,0.0192,0.0191,0.0191,0.016,0.016,0.0159,0.0159,0.0086,0.0084,0.0082,0,0,0,0,0,0,0,0,0,0,0,0,0,0.02,0.021,0.0221,0.0203,0.0201,0.0192,0.0191,0.019,0.016,0.016,0.0159,0.0159,0.0086,0.0084,0.0081,0.0076,0,0,0.0074,0.0073,0,0,0,0,0,0,0,0,0.02,0.02,0.0206,0.0204,0.0202,0.018,0.016,0.015,0.016,0.0175,0.0159,0.0158,0.0114,0.0109,0.0104,0.0073,0.007,0.0074,0.0072,0.0071,0.007,0,0,0,0,0,0,0,0.0201,0.0201,0.0209,0.0206,0.0203,0.0181,0.0179,0.0158,0.0146,0.0173,0.0171,0.0169,0.0112,0.0106,0.0102,0.0068,0.0074,0.0071,0.007,0.0069,0.0028,0.0028,0,0,0,0,0,0,0.0209,0.0202,0.021,0.0208,0.0201,0.0182,0.018,0.0187,0.0147,0.0141,0.017,0.0168,0.0111,0.0105,0.0099,0.0097,0.0071,0.0069,0.0067,0.0028,0.0028,0.0029,0,0,0,0,0,0,0.0209,0.0211,0.0211,0.0204,0.0203,0.0183,0.019,0.0186,0.0181,0.0145,0.0138,0.0169,0.011,0.0102,0.0084,0.0094,0.0068,0.0065,0.0027,0.0028,0.0028,0.009,0,0,0,0,0,0,0.0209,0.0211,0.0216,0.0205,0.0203,0.0214,0.0191,0.0186,0.0181,0.0179,0.0142,0.0135,0.0109,0.0088,0.0082,0.009,0.0063,0.0027,0.0028,0.0028,0.0087,0.0093,0.0097,0,0,0,0,0,0.0209,0.0223,0.0217,0.0217,0.0212,0.0215,0.0212,0.0195,0.0182,0.0187,0.0159,0.0136,0.0088,0.0086,0.0079,0.0087,0.0026,0.0027,0.0028,0.0085,0.0092,0.0097,0,0,0,0,0,0,0.0214,0.0221,0.0214,0.0227,0.0223,0.021,0.0211,0.02,0.0183,0.0176,0.014,0.0132,0.0119,0.0095,0.0094,0.0077,0.0053,0.0053,0.0099,0.0105,0.011,0.0129,0.0061,0,0,0,0,0,0.0219,0.0235,0.0231,0.024,0.0241,0.0226,0.0223,0.0214,0.0199,0.0191,0.0168,0.0139,0.0117,0.0105,0.0082,0.0074,0.0053,0.0073,0.0078,0.0083,0.0093,0.0067,0.0071,0.0032,0.0032,0.0032,0,0,0.0222,0.0228,0.0235,0.0243,0.0237,0.0249,0.0223,0.0225,0.0234,0.0185,0.0186,0.0155,0.0118,0.0109,0.0101,0.009,0.0084,0.0084,0.0088,0.0096,0.0069,0.0072,0.0076,0.0032,0.0032,0.0032,0,0,0.0245,0.0243,0.0268,0.0272,0.0274,0.0265,0.0269,0.0261,0.0255,0.025,0.0217,0.0196,0.0163,0.0143,0.0127,0.0144,0.0109,0.0133,0.0175,0.015,0.0153,0.0155,0.0141,0.0142,0.0137,0.0137,0.0138,0,0.0246,0.0283,0.0272,0.0298,0.0308,0.0277,0.0304,0.0293,0.028,0.0285,0.0258,0.0218,0.0181,0.0176,0.0177,0.0156,0.0138,0.0157,0.0157,0.0159,0.016,0.0145,0.0145,0.014,0.014,0.014,0.014,0,0.0294,0.0321,0.0335,0.036,0.0364,0.0382,0.037,0.0375,0.0357,0.0345,0.0335,0.0284,0.0264,0.0243,0.0211,0.0209,0.0192,0.0165,0.0145,0.0168,0.0151,0.015,0.0145,0.0144,0.0143,0.0142,0,0,0.0304,0.0361,0.0366,0.0402,0.0403,0.0419,0.043,0.0443,0.0469,0.0427,0.0453,0.039,0.0359,0.0338,0.0294,0.0265,0.0253,0.0223,0.022,0.0216,0.0207,0.0169,0.0164,0.0223,0.0223,0.0223,0.0193,0,0.0347,0.0423,0.043,0.0492,0.0531,0.0516,0.0537,0.0538,0.0527,0.0542,0.0479,0.0474,0.0396,0.039,0.0346,0.0281,0.0252,0.0265,0.018,0.0178,0.0146,0.0162,0.0177,0.0148,0.0192,0.0191,0.0191,0,0.0393,0.0445,0.052,0.0589,0.0602,0.063,0.0672,0.0689,0.0685,0.0677,0.0648,0.0595,0.0547,0.0476,0.037,0.0381,0.0301,0.0241,0.0238,0.0182,0.0138,0.013,0.0144,0.0189,0.0189,0.0189,0.019,0,0.0429,0.0508,0.0578,0.0599,0.066,0.0697,0.0725,0.0736,0.0776,0.0768,0.0795,0.0706,0.0688,0.0565,0.0415,0.0398,0.0299,0.0261,0.0155,0.0151,0.0138,0.0133,0.019,0.019,0.0191,0.0191,0.0191,0,0.0482,0.0539,0.0611,0.0657,0.075,0.0761,0.0854,0.0866,0.0902,0.0968,0.0873,0.0897,0.0708,0.0619,0.0464,0.0307,0.0333,0.017,0.0141,0.0159,0.0157,0.0167,0.0165,0.0189,0.019,0.019,0.019,0,0.052,0.0559,0.0657,0.0745,0.0777,0.0848,0.0957,0.1025,0.1041,0.1128,0.113,0.1053,0.0931,0.0734,0.0545,0.0393,0.0231,0.0168,0.0204,0.0179,0.0092,0.0093,0.0059,0.0058,0.0056,0.0055,0.0054,0,0.0559,0.0607,0.0729,0.0799,0.085,0.0959,0.1037,0.1089,0.1171,0.1227,0.1278,0.1185,0.1122,0.0823,0.0534,0.0264,0.0233,0.0109,0.0068,0.0103,0.0079,0.0082,0.0085,0.0081,0.008,0.0079,0.0079,0,0.0631,0.0663,0.0748,0.0895,0.0998,0.1114,0.1236,0.132,0.139,0.1449,0.1494,0.1441,0.1161,0.0869,0.0495,0.031,0.0146,0.0089,0.0126,0.0104,0.0118,0.0096,0.0099,0.0074,0.0075,0.0075,0.0075,0.0075,0.069,0.0761,0.0872,0.1006,0.1125,0.1261,0.1363,0.148,0.1599,0.1676,0.1629,0.154,0.1239,0.073,0.0429,0.011,0.012,0.0005,0.0009,0.0013,0.0014,0.0023,-0.0037,-0.0037,-0.0037,-0.0038,-0.0038,0,0.0775,0.0848,0.098,0.1154,0.1296,0.1331,0.1488,0.1571,0.1707,0.1739,0.174,0.1417,0.1106,0.0766,0.0289,0.0009,-0.0006,-0.0073,-0.0026,-0.002,-0.0015,-0.0014,-0.0073,-0.0073,-0.0074,-0.0075,0,0,0.0831,0.0952,0.1014,0.1263,0.1387,0.1541,0.162,0.1706,0.1746,0.1746,0.1675,0.1572,0.1173,0.0828,0.0457,0.0193,0.0152,0.0139,0.0193,0.0298,0.0307,0.0052,0.0062,0,0,0,0,0]}],[{"header":{"parameterUnit":"m.s-1","parameterCategory":2,"la1":30.2991,"la2":30.254,"lo1":-89.0895,"lo2":-89.0444,"dy":0.0017,"dx":0.0017,"nx":28,"ny":28,"refTime":"2026-02-09T09:00:00:Z","depth":"4","parameterNumber":2,"parameterNumberName":"U-component_of_CURRENTS"},"data":[0,0,0,0,0,0,0,0,0,0,0,0,0,0,0,0,0,0,0,0,0,0,0,0,0,0,0,0,0,0,0,0,0,0,0,0,0,0,0,0,0,0,0,0,0,0,0,0,0,0,0,0,0,0,0,0,0,0,0.1294,0.1294,0,0.1322,0.1322,0.1322,0.1349,0.135,0.135,0.135,0.1362,0.1362,0.1362,0,0,0,0,0,0,0,0,0,0,0,0,0,0.125,0.125,0.1294,0.1294,0.1294,0.1322,0.1322,0.1323,0.1349,0.135,0.135,0.1351,0.1362,0.1362,0.1362,0,0,0,0,0,0,0,0,0,0,0,0,0,0.1272,0.1251,0.1294,0.1312,0.1313,0.1322,0.1322,0.1323,0.1349,0.135,0.135,0.1351,0.1362,0.1362,0.1362,0.135,0,0,0.1362,0.1362,0,0,0,0,0,0,0,0,0.1271,0.1273,0.1309,0.131,0.1313,0.1333,0.1311,0.1331,0.1349,0.1335,0.135,0.1351,0.1351,0.1352,0.1355,0.1351,0.1351,0.1362,0.1362,0.1362,0.1362,0,0,0,0,0,0,0,0.1269,0.1272,0.1304,0.1309,0.1311,0.1314,0.1318,0.1315,0.1339,0.1336,0.1338,0.1342,0.1352,0.1355,0.1356,0.1351,0.1362,0.1362,0.1362,0.1362,0.1436,0.1438,0,0,0,0,0,0,0.1267,0.1271,0.1303,0.1305,0.1293,0.1314,0.1318,0.1325,0.1339,0.1342,0.1342,0.1343,0.1355,0.1356,0.1356,0.1415,0.1362,0.1362,0.1362,0.1434,0.1436,0.1439,0,0,0,0,0,0,0.1266,0.127,0.1302,0.1289,0.1293,0.1314,0.1322,0.1326,0.1356,0.1343,0.1346,0.1371,0.1356,0.1356,0.1379,0.1413,0.1362,0.1362,0.1432,0.1435,0.1437,0.1486,0,0,0,0,0,0,0.1265,0.1269,0.1288,0.1289,0.1294,0.1323,0.1322,0.1326,0.1356,0.1359,0.1369,0.1369,0.1356,0.1379,0.1379,0.1412,0.1362,0.1429,0.1433,0.1436,0.1482,0.1491,0.1498,0,0,0,0,0,0.1263,0.1278,0.1289,0.1294,0.1315,0.1323,0.1327,0.1342,0.1357,0.1372,0.1383,0.137,0.1404,0.138,0.1379,0.1413,0.1427,0.1432,0.1436,0.1479,0.1489,0.1498,0,0,0,0,0,0,0.1264,0.1282,0.1294,0.1314,0.1328,0.1329,0.1348,0.1359,0.138,0.1393,0.1383,0.1384,0.1419,0.1413,0.1387,0.145,0.1418,0.1423,0.1451,0.1461,0.1468,0.1471,0.1362,0,0,0,0,0,0.1274,0.1296,0.1306,0.1326,0.1336,0.135,0.1362,0.1373,0.1384,0.1396,0.1407,0.1422,0.1434,0.1444,0.1451,0.1477,0.1483,0.1505,0.1513,0.152,0.1524,0.156,0.1571,0.1453,0.1453,0.1453,0,0,0.1279,0.1294,0.1306,0.1329,0.1344,0.1354,0.1359,0.1385,0.1401,0.1392,0.1432,0.1447,0.1447,0.1479,0.1496,0.148,0.1561,0.1525,0.1531,0.1532,0.1566,0.1577,0.1587,0.1456,0.1456,0.1455,0,0,0.1284,0.1316,0.1331,0.1346,0.1374,0.1379,0.1393,0.1415,0.1439,0.147,0.1475,0.1514,0.153,0.1542,0.1546,0.1604,0.16,0.1618,0.1658,0.1693,0.1703,0.1711,0.1746,0.1758,0.1623,0.1623,0.1623,0,0.1292,0.1306,0.1336,0.135,0.1362,0.1393,0.1401,0.1426,0.1457,0.1483,0.1492,0.1555,0.1558,0.1596,0.1623,0.162,0.1641,0.1617,0.1702,0.171,0.1718,0.1752,0.1764,0.1626,0.1626,0.1626,0.1625,0,0.1295,0.1316,0.1327,0.1355,0.1376,0.1391,0.1422,0.146,0.1497,0.1524,0.1591,0.1613,0.1654,0.1668,0.166,0.1726,0.1724,0.1704,0.1672,0.1732,0.1765,0.1776,0.163,0.1629,0.1629,0.1628,0,0,0.1278,0.132,0.1327,0.1339,0.138,0.1392,0.1434,0.1474,0.1522,0.1575,0.1634,0.1678,0.1721,0.1731,0.1746,0.178,0.1857,0.1774,0.1774,0.18,0.1945,0.1809,0.1808,0.1854,0.1856,0.1857,0.1951,0,0.1268,0.129,0.1315,0.1337,0.1346,0.1392,0.143,0.1483,0.1543,0.1616,0.1669,0.1734,0.1735,0.1779,0.1815,0.1846,0.1887,0.1834,0.1891,0.1893,0.1756,0.1816,0.1863,0.1959,0.1961,0.1963,0.1964,0,0.125,0.1269,0.1288,0.1331,0.1343,0.1371,0.1449,0.1488,0.1593,0.1651,0.1735,0.1787,0.1866,0.1855,0.1946,0.1916,0.1942,0.1959,0.1962,0.1822,0.1777,0.1885,0.1984,0.1983,0.1981,0.198,0.1979,0,0.1208,0.1244,0.126,0.1275,0.1334,0.1367,0.1409,0.1508,0.1566,0.1691,0.1762,0.1852,0.1925,0.1965,0.2014,0.1994,0.2101,0.2071,0.1974,0.1965,0.2037,0.2027,0.2133,0.2133,0.2133,0.2133,0.2132,0,0.1167,0.1182,0.1251,0.1261,0.1299,0.1356,0.1423,0.1491,0.1609,0.1684,0.1791,0.1868,0.196,0.203,0.2046,0.2045,0.2131,0.1991,0.1979,0.2058,0.2049,0.2045,0.2034,0.2136,0.2135,0.2135,0.2134,0,0.1106,0.1151,0.1171,0.1247,0.1278,0.1309,0.1419,0.1471,0.1602,0.1707,0.1755,0.1911,0.1998,0.2065,0.2143,0.2082,0.209,0.2068,0.2167,0.2158,0.1928,0.1919,0.1967,0.1963,0.196,0.1957,0.1954,0,0.1062,0.1072,0.1158,0.1179,0.1215,0.1279,0.1325,0.1453,0.1517,0.1713,0.1756,0.1904,0.1983,0.1998,0.2065,0.2085,0.2057,0.2044,0.1964,0.1927,0.1912,0.1907,0.1903,0.1949,0.1948,0.1947,0.1946,0,0.0977,0.1031,0.1064,0.1118,0.1164,0.12,0.1284,0.1331,0.148,0.1616,0.1721,0.1778,0.1876,0.1927,0.1959,0.1964,0.2035,0.2008,0.2014,0.1939,0.1905,0.1893,0.1892,0.1934,0.1936,0.1937,0.1938,0,0.0921,0.0935,0.1001,0.1035,0.1086,0.1107,0.1161,0.1242,0.1324,0.155,0.1577,0.1732,0.1863,0.1867,0.1894,0.1888,0.1854,0.1774,0.1791,0.1805,0.1703,0.1634,0.1579,0,0,0,0,0,0.0857,0.088,0.0908,0.0939,0.0984,0.1013,0.1126,0.1191,0.1351,0.1384,0.1481,0.1563,0.1629,0.1711,0.1672,0.1806,0.1847,0.175,0.176,0.1868,0.1882,0.1773,0,0,0,0,0,0,0.0819,0.0858,0.0882,0.085,0.0849,0.0883,0.0949,0.1054,0.1092,0.1268,0.1323,0.1442,0.1538,0.1627,0.1632,0.1651,0.1619,0.1842,0.1837,0.1861,0.1873,0.1884,0.1777,0,0,0,0,0]},{"header":{"parameterUnit":"m.s-1","parameterCategory":2,"la1":30.2991,"la2":30.254,"lo1":-89.0895,"lo2":-89.0444,"dy":0.0017,"dx":0.0017,"nx":28,"ny":28,"refTime":"2026-02-09T09:00:00:Z","depth":"4","parameterNumber":3,"parameterNumberName":"V-component_of_CURRENTS"},"data":[0,0,0,0,0,0,0,0,0,0,0,0,0,0,0,0,0,0,0,0,0,0,0,0,0,0,0,0,0,0,0,0,0,0,0,0,0,0,0,0,0,0,0,0,0,0,0,0,0,0,0,0,0,0,0,0,0,0,0.0166,0.0166,0,0.015,0.0149,0.0149,0.0136,0.0136,0.0136,0.0136,0.0094,0.0093,0.0092,0,0,0,0,0,0,0,0,0,0,0,0,0,0.0156,0.0156,0.0166,0.0166,0.0166,0.015,0.0149,0.0149,0.0136,0.0136,0.0136,0.0136,0.0095,0.0094,0.0092,0,0,0,0,0,0,0,0,0,0,0,0,0,0.0151,0.0156,0.0166,0.0158,0.0157,0.015,0.0149,0.0149,0.0136,0.0136,0.0136,0.0136,0.0095,0.0094,0.0092,0.0085,0,0,0.0087,0.0087,0,0,0,0,0,0,0,0,0.0152,0.0152,0.0159,0.0158,0.0157,0.0145,0.013,0.0127,0.0136,0.0144,0.0136,0.0136,0.0109,0.0107,0.0104,0.0083,0.0082,0.0087,0.0086,0.0086,0.0085,0,0,0,0,0,0,0,0.0152,0.0152,0.0159,0.0159,0.0158,0.0144,0.0144,0.013,0.0127,0.0143,0.0142,0.0141,0.0109,0.0105,0.0103,0.0081,0.0087,0.0086,0.0085,0.0084,0.0053,0.0053,0,0,0,0,0,0,0.0157,0.0153,0.016,0.0159,0.0155,0.0145,0.0144,0.0149,0.0127,0.0124,0.0141,0.0141,0.0108,0.0104,0.0101,0.0104,0.0086,0.0084,0.0083,0.0053,0.0053,0.0053,0,0,0,0,0,0,0.0157,0.0158,0.016,0.0155,0.0155,0.0145,0.0151,0.0149,0.0149,0.0126,0.0123,0.0144,0.0108,0.0103,0.0093,0.0102,0.0084,0.0082,0.0053,0.0053,0.0053,0.0102,0,0,0,0,0,0,0.0157,0.0158,0.0163,0.0156,0.0155,0.0163,0.0151,0.0148,0.0148,0.0147,0.0127,0.0123,0.0107,0.0096,0.0092,0.0099,0.0081,0.0053,0.0053,0.0053,0.01,0.0104,0.0107,0,0,0,0,0,0.0156,0.0166,0.0163,0.0164,0.0162,0.0164,0.0162,0.0154,0.0148,0.0153,0.0138,0.0124,0.0094,0.0095,0.009,0.0097,0.0053,0.0053,0.0053,0.0099,0.0103,0.0107,0,0,0,0,0,0,0.0159,0.0165,0.0162,0.0172,0.017,0.0162,0.0164,0.0158,0.015,0.0148,0.0126,0.0121,0.0114,0.0098,0.0099,0.0087,0.007,0.007,0.0106,0.011,0.0113,0.0131,0.008,0,0,0,0,0,0.0163,0.0175,0.0173,0.018,0.0181,0.0173,0.0172,0.0168,0.016,0.0157,0.0144,0.0126,0.0111,0.0105,0.0089,0.0085,0.0058,0.0085,0.0088,0.0091,0.0101,0.0063,0.0064,0.0054,0.0054,0.0054,0,0,0.0165,0.017,0.0176,0.0182,0.0179,0.0192,0.0172,0.0176,0.0187,0.0153,0.0161,0.0137,0.0111,0.0107,0.0102,0.0095,0.0079,0.0091,0.0094,0.0103,0.0063,0.0064,0.0065,0.0054,0.0054,0.0054,0,0,0.0183,0.0181,0.0201,0.0205,0.0208,0.0204,0.0208,0.0204,0.0203,0.0203,0.0181,0.0165,0.0145,0.0131,0.012,0.0131,0.0096,0.0122,0.0157,0.0119,0.012,0.012,0.0085,0.0082,0.0126,0.0126,0.0126,0,0.0184,0.0213,0.0204,0.0225,0.0235,0.0214,0.0237,0.0233,0.0227,0.0229,0.0212,0.0182,0.0158,0.0154,0.0157,0.014,0.0112,0.0146,0.0124,0.0124,0.0124,0.0087,0.0083,0.0129,0.0128,0.0128,0.0128,0,0.0222,0.0244,0.0254,0.0278,0.0282,0.0298,0.0293,0.0299,0.0288,0.0279,0.027,0.0234,0.0219,0.0203,0.0184,0.0173,0.0151,0.0131,0.0117,0.0128,0.0089,0.0083,0.0132,0.0131,0.013,0.013,0,0,0.0232,0.0275,0.028,0.0307,0.0315,0.0327,0.0342,0.0353,0.037,0.0342,0.0354,0.0317,0.0292,0.0278,0.0246,0.0212,0.0178,0.0175,0.0172,0.0147,0.0094,0.0078,0.007,0.0151,0.0151,0.015,0.0068,0,0.0267,0.0325,0.0332,0.0382,0.0412,0.0405,0.0426,0.0428,0.0417,0.0419,0.0373,0.0366,0.0321,0.0315,0.0274,0.0201,0.0167,0.0203,0.0084,0.008,0.0069,0.0064,0.0149,0.0064,0.0062,0.0061,0.0061,0,0.0307,0.0344,0.0403,0.0453,0.0464,0.0489,0.052,0.0537,0.0526,0.0516,0.0491,0.0448,0.0402,0.036,0.0245,0.0267,0.0193,0.013,0.0124,0.0091,0.0054,0.005,0.0051,0.0052,0.0052,0.0053,0.0054,0,0.0335,0.0394,0.0447,0.0464,0.051,0.054,0.0564,0.057,0.0595,0.0579,0.0582,0.0512,0.0482,0.0377,0.0243,0.0243,0.0103,0.0086,0.0003,0.0,0.0019,0.002,0.0011,0.0012,0.0012,0.0012,0.0012,0,0.0377,0.0421,0.0471,0.0505,0.057,0.0585,0.0649,0.0658,0.0678,0.0705,0.0639,0.0629,0.0483,0.0383,0.026,0.0111,0.0113,0.0011,-0.0021,0.0041,0.0045,0.0015,0.0017,0.0009,0.001,0.001,0.0011,0,0.0406,0.0436,0.0504,0.0566,0.0591,0.064,0.0718,0.076,0.0767,0.08,0.0798,0.0714,0.0578,0.0421,0.024,0.014,-0.0005,-0.0057,0.0021,-0.0006,-0.0085,-0.008,-0.015,-0.0151,-0.0152,-0.0153,-0.0153,0,0.0432,0.0469,0.055,0.0593,0.063,0.0706,0.0762,0.0803,0.0849,0.0846,0.086,0.0749,0.0669,0.0404,0.023,-0.0006,-0.0038,-0.011,-0.0095,-0.0077,-0.0102,-0.0095,-0.0089,-0.0155,-0.0155,-0.0156,-0.0156,0,0.0473,0.0497,0.0549,0.0642,0.0711,0.0789,0.0872,0.0914,0.0954,0.0955,0.0909,0.0772,0.0618,0.0406,0.0218,0.0049,-0.0064,-0.0122,-0.012,-0.0106,-0.0085,-0.0107,-0.0099,-0.016,-0.0159,-0.0159,-0.0159,0,0.05,0.0536,0.0601,0.0683,0.0769,0.085,0.0894,0.0945,0.0986,0.0985,0.096,0.0791,0.0693,0.0434,0.0258,0.0088,0.0051,0.0004,-0.0002,0.0,0.0063,0.0113,0.0075,0,0,0,0,0,0.052,0.0559,0.0638,0.0728,0.0817,0.0869,0.0956,0.0992,0.1031,0.1007,0.0991,0.0844,0.0583,0.0466,0.0295,0.0234,0.0018,0.0027,-0.004,-0.018,-0.0176,-0.013,0,0,0,0,0,0,0.0529,0.0596,0.0635,0.075,0.0822,0.0922,0.0981,0.1006,0.0999,0.1001,0.0863,0.0799,0.0543,0.0678,0.0289,0.0238,0.0171,-0.0094,-0.0098,-0.0183,-0.0179,-0.0175,-0.0126,0,0,0,0,0]}]]